Regional Weather Roundup
Issued by NWS Jackson, KY

Home | Current Version | Previous Version | Graphics & Text | Print | Product List | Glossary On
Versions: 1 2 3 4 5 6 7 8 9 10 11 12 13 14 15 16 17 18 19 20 21 22 23 24 25 26 27 28 29 30 31 32 33 34 35 36 37 38 39 40 41 42 43 44 45 46 47 48 49 50
000
ASUS43 KJKL 261910
RWRJKL

EAST KENTUCKY HOURLY WEATHER ROUNDUP
NATIONAL WEATHER SERVICE JACKSON KY
200 PM EST FRI DEC 26 2014

NOTE: "FAIR" INDICATES FEW OR NO CLOUDS BELOW 12,000 FEET WITH
NO SIGNIFICANT WEATHER AND/OR OBSTRUCTIONS TO VISIBILITY.

* THESE REPORTS ARE NOT UNDER NWS QUALITY CONTROL AND MAY NOT
  REPORT WEATHER SUCH AS PRECIPITATION AND FOG.

KYZ079-080-083-085-087-088-110-112-115-119-120-262000
...EASTERN KENTUCKY...

CITY           SKY/WX    TMP DP  RH WIND       PRES   REMARKS
JACKSON          N/A     52  33  48 VRB5      30.24F
LONDON           N/A     52  26  36 S8        30.26F
SOMERSET*        N/A     50  34  53 S3        30.27F
MONTICELLO*      N/A     55  34  45 VRB6      30.28F
MIDDLESBORO*     N/A     52  34  50 S10       30.28F
HARLAN APT*      N/A     52  34  50 SE3       30.27F
HAZARD APT*    CLEAR     52  30  43 S5        30.25
BLACK MTN*       N/A     46  25  42 SW3         N/A
PIKEVILLE APT* SUNNY     48  32  53 S3        30.25F
BIG SANDY*       N/A     50  33  53 SW8       30.25F
MOREHEAD APT*    N/A     52  36  54 S6G13     30.26F
$$

KYZ035-036-041-042-044-050-067-078-099-262000
...CENTRAL KENTUCKY...

CITY           SKY/WX    TMP DP  RH WIND       PRES   REMARKS
MT STERLING*     N/A     52  37  58 SW12      30.24F
FLEMING/MASON* SUNNY     50  37  62 S12       30.23F
DANVILLE*        N/A     50  34  53 SW13      30.25F
RICHMOND*        N/A     52  34  50 S8        30.23F
LEXINGTON        N/A     52  37  56 S9        30.22F
FRANKFORT        N/A     53  36  52 SW10      30.21F
$$

KYZ091>093-OHZ055-061-077-WVZ005-015-034-035-042-262000
...SOUTHERN OHIO/WEST VIRGINIA...

CITY           SKY/WX    TMP DP  RH WIND       PRES   REMARKS
COVINGTON        N/A     51  35  54 SW12G21   30.18F
COLUMBUS       PTSUNNY   46  36  68 S8        30.18F
DAYTON         PTSUNNY   50  38  63 SW13      30.16F
WILMINGTON       N/A     48  37  65 S12       30.17F
HUNTINGTON       N/A     48  35  60 S6        30.24F
CHARLESTON       N/A     51  31  46 SW6       30.25F
PINEVILLE*       N/A     51  34  52 MISG      30.30F
BECKLEY          N/A     47  22  37 SW7       30.24F
BLUEFIELD        N/A     53  20  27 W5        30.24F
$$

VAZ002-007-008-TNZ017-027-036-066-071-262000
...SOUTHWEST VIRGINIA/EAST TENNESSEE...

CITY           SKY/WX    TMP DP  RH WIND       PRES   REMARKS
WISE*            N/A     54  23  30 SE6       30.24F
JONESVILLE*      N/A     50  32  50 W7        30.30F
ABINGDON*        N/A     56  25  31 W6        30.25F
BRISTOL          N/A     52  32  46 S3        30.27F
KNOXVILLE      PTSUNNY   48  35  60 VRB6      30.31F
OAK RIDGE        N/A     50  34  54 VRB5      30.31F
CROSSVILLE       N/A     50  34  54 S7        30.26F
NASHVILLE      PTSUNNY   53  37  54 S10       30.24F
$$

...KEY TO REMARKS...
VSB - VISIBILITY IN MILES
WCI - WIND CHILL INDEX
HX  - HEAT INDEX

$$



USA.gov is the U.S. government's official web portal to all federal, state and local government web resources and services.